| time (UTC) | temp F | wind direction | speed MPH | gust MPH | rain 1hr in | rain 24hr in | rain mn in | humidity % | barometer mb |
| 20260503013430 | 77 | 92 | 12.0 | 18.0 | 0.00 | 0.00 | 0.00 | 78 | 1021.0 |
| 20260503012927 | 77 | 93 | 9.0 | 16.0 | 0.00 | 0.00 | 0.00 | 78 | 1021.0 |
| 20260503012425 | 77 | 97 | 11.0 | 15.0 | 0.00 | 0.00 | 0.00 | 78 | 1021.0 |
| 20260503011921 | 77 | 130 | 15.0 | 18.0 | 0.00 | 0.00 | 0.00 | 78 | 1021.0 |
| 20260503011418 | 77 | 114 | 13.0 | 18.0 | 0.00 | 0.00 | 0.00 | 78 | 1020.8 |
| 20260503010915 | 78 | 163 | 10.0 | 16.0 | 0.00 | 0.00 | 0.00 | 79 | 1020.6 |
| 20260503010411 | 78 | 126 | 7.0 | 16.0 | 0.00 | 0.00 | 0.00 | 78 | 1020.9 |
| 20260503005908 | 78 | 93 | 8.0 | 15.0 | 0.00 | 0.00 | 0.00 | 79 | 1020.5 |
| 20260503005406 | 78 | 94 | 7.0 | 14.0 | 0.00 | 0.00 | 0.00 | 78 | 1020.5 |
| 20260503004902 | 78 | 114 | 10.0 | 16.0 | 0.00 | 0.00 | 0.00 | 78 | 1020.5 |
| 20260503004359 | 78 | 81 | 12.0 | 14.0 | 0.00 | 0.00 | 0.00 | 78 | 1020.6 |
| 20260503003857 | 78 | 337 | 6.0 | 16.0 | 0.00 | 0.00 | 0.00 | 78 | 1020.3 |
| 20260503003353 | 78 | 58 | 13.0 | 15.0 | 0.00 | 0.00 | 0.00 | 78 | 1020.3 |
| 20260503002850 | 78 | 36 | 9.0 | 15.0 | 0.00 | 0.00 | 0.00 | 79 | 1020.1 |
| 20260503002348 | 78 | 93 | 10.0 | 16.0 | 0.00 | 0.00 | 0.00 | 79 | 1020.2 |
| 20260503001844 | 78 | 86 | 11.0 | 21.0 | 0.00 | 0.00 | 0.00 | 79 | 1020.2 |
| 20260503001340 | 78 | 110 | 12.0 | 18.0 | 0.00 | 0.00 | 0.00 | 79 | 1020.0 |
| 20260503000838 | 78 | 131 | 9.0 | 15.0 | 0.00 | 0.00 | 0.00 | 79 | 1019.9 |
| 20260503000335 | 78 | 101 | 14.0 | 16.0 | 0.00 | 0.00 | 0.00 | 78 | 1020.0 |
| 20260502235832 | 78 | 107 | 12.0 | 16.0 | 0.00 | 0.00 | 0.00 | 79 | 1019.9 |
| 20260502235329 | 78 | 175 | 9.0 | 15.0 | 0.00 | 0.00 | 0.00 | 80 | 1020.0 |
| 20260502234826 | 78 | 93 | 6.0 | 11.0 | 0.00 | 0.00 | 0.00 | 80 | 1019.9 |
| 20260502234323 | 78 | 87 | 8.0 | 11.0 | 0.00 | 0.00 | 0.00 | 79 | 1019.8 |
| 20260502233820 | 78 | 113 | 9.0 | 11.0 | 0.00 | 0.00 | 0.00 | 78 | 1019.7 |
| 20260502233316 | 78 | 173 | 6.0 | 15.0 | 0.00 | 0.00 | 0.00 | 77 | 1019.8 |
| 20260502232813 | 78 | 209 | 6.0 | 15.0 | 0.00 | 0.00 | 0.00 | 78 | 1019.6 |
| 20260502232309 | 78 | 84 | 9.0 | 17.0 | 0.00 | 0.00 | 0.00 | 78 | 1019.9 |
| 20260502231806 | 78 | 98 | 9.0 | 16.0 | 0.00 | 0.00 | 0.00 | 78 | 1019.7 |
| 20260502231304 | 78 | 142 | 9.0 | 14.0 | 0.00 | 0.00 | 0.00 | 78 | 1019.7 |
| 20260502230802 | 78 | 92 | 6.0 | 9.0 | 0.00 | 0.00 | 0.00 | 78 | 1019.6 |
| 20260502230300 | 78 | 124 | 8.0 | 11.0 | 0.00 | 0.00 | 0.00 | 77 | 1019.5 |
| 20260502225756 | 79 | 121 | 10.0 | 15.0 | 0.00 | 0.00 | 0.00 | 76 | 1019.4 |
| 20260502225253 | 79 | 84 | 12.0 | 16.0 | 0.00 | 0.00 | 0.00 | 76 | 1019.3 |
| 20260502224749 | 79 | 121 | 9.0 | 15.0 | 0.00 | 0.00 | 0.00 | 75 | 1019.4 |
| 20260502224246 | 79 | 129 | 9.0 | 11.0 | 0.00 | 0.00 | 0.00 | 75 | 1019.3 |
| 20260502223743 | 79 | 147 | 7.0 | 17.0 | 0.00 | 0.00 | 0.00 | 75 | 1019.3 |
| 20260502223241 | 79 | 109 | 9.0 | 13.0 | 0.00 | 0.00 | 0.00 | 75 | 1019.4 |
| 20260502222739 | 80 | 89 | 9.0 | 14.0 | 0.00 | 0.00 | 0.00 | 75 | 1019.2 |
| 20260502222235 | 80 | 123 | 7.0 | 14.0 | 0.00 | 0.00 | 0.00 | 74 | 1019.4 |
| 20260502221731 | 80 | 67 | 11.0 | 18.0 | 0.00 | 0.00 | 0.00 | 74 | 1019.5 |
| 20260502221228 | 80 | 100 | 8.0 | 15.0 | 0.00 | 0.00 | 0.00 | 74 | 1019.4 |
| 20260502220725 | 80 | 228 | 6.0 | 17.0 | 0.00 | 0.00 | 0.00 | 75 | 1019.1 |
| 20260502220221 | 80 | 92 | 7.0 | 15.0 | 0.00 | 0.00 | 0.00 | 75 | 1019.4 |
| 20260502215718 | 80 | 73 | 8.0 | 11.0 | 0.00 | 0.00 | 0.00 | 74 | 1019.1 |
| 20260502215215 | 80 | 99 | 9.0 | 14.0 | 0.00 | 0.00 | 0.00 | 74 | 1019.2 |
| 20260502214712 | 81 | 168 | 12.0 | 17.0 | 0.00 | 0.00 | 0.00 | 73 | 1019.0 |
| 20260502214209 | 81 | 112 | 9.0 | 14.0 | 0.00 | 0.00 | 0.00 | 73 | 1019.0 |
| 20260502213706 | 81 | 84 | 11.0 | 14.0 | 0.00 | 0.00 | 0.00 | 72 | 1018.9 |
| 20260502213203 | 81 | 86 | 8.0 | 15.0 | 0.00 | 0.00 | 0.00 | 72 | 1018.9 |
| 20260502212702 | 81 | 93 | 9.0 | 14.0 | 0.00 | 0.00 | 0.00 | 72 | 1018.7 |
| 20260502212200 | 81 | 218 | 6.0 | 14.0 | 0.00 | 0.00 | 0.00 | 73 | 1018.6 |
| 20260502211655 | 81 | 98 | 11.0 | 15.0 | 0.00 | 0.00 | 0.00 | 71 | 1018.5 |
| 20260502211153 | 81 | 105 | 13.0 | 16.0 | 0.00 | 0.00 | 0.00 | 70 | 1018.7 |
| 20260502210650 | 81 | 151 | 11.0 | 15.0 | 0.00 | 0.00 | 0.00 | 72 | 1018.5 |
| 20260502210147 | 82 | 81 | 10.0 | 18.0 | 0.00 | 0.00 | 0.00 | 72 | 1018.7 |
| 20260502205644 | 82 | 134 | 10.0 | 16.0 | 0.00 | 0.00 | 0.00 | 71 | 1018.6 |
| 20260502205140 | 82 | 92 | 10.0 | 18.0 | 0.00 | 0.00 | 0.00 | 71 | 1018.4 |
| 20260502204637 | 82 | 151 | 8.0 | 24.0 | 0.00 | 0.00 | 0.00 | 71 | 1018.6 |
| 20260502204135 | 82 | 104 | 14.0 | 16.0 | 0.00 | 0.00 | 0.00 | 71 | 1018.4 |
| 20260502203632 | 82 | 86 | 10.0 | 18.0 | 0.00 | 0.00 | 0.00 | 72 | 1018.6 |
| 20260502203130 | 82 | 128 | 14.0 | 22.0 | 0.00 | 0.00 | 0.00 | 71 | 1018.4 |
| 20260502202624 | 82 | 101 | 17.0 | 22.0 | 0.00 | 0.00 | 0.00 | 70 | 1018.5 |
| 20260502202123 | 82 | 150 | 12.0 | 17.0 | 0.00 | 0.00 | 0.00 | 71 | 1018.2 |
| 20260502201619 | 82 | 98 | 12.0 | 18.0 | 0.00 | 0.00 | 0.00 | 70 | 1018.3 |
| 20260502201116 | 82 | 103 | 19.0 | 22.0 | 0.00 | 0.00 | 0.00 | 69 | 1018.4 |
| 20260502200611 | 82 | 141 | 13.0 | 23.0 | 0.00 | 0.00 | 0.00 | 70 | 1018.4 |
| 20260502200109 | 82 | 102 | 14.0 | 22.0 | 0.00 | 0.00 | 0.00 | 69 | 1018.5 |
| 20260502195608 | 82 | 120 | 12.0 | 23.0 | 0.00 | 0.00 | 0.00 | 72 | 1018.5 |
| 20260502195102 | 83 | 126 | 13.0 | 25.0 | 0.00 | 0.00 | 0.00 | 71 | 1018.7 |
| 20260502194600 | 83 | 152 | 14.0 | 24.0 | 0.00 | 0.00 | 0.00 | 70 | 1018.7 |
| 20260502194056 | 83 | 113 | 13.0 | 24.0 | 0.00 | 0.00 | 0.00 | 70 | 1018.6 |
| 20260502193553 | 83 | 110 | 19.0 | 26.0 | 0.00 | 0.00 | 0.00 | 68 | 1018.7 |
| 20260502193050 | 83 | 106 | 19.0 | 24.0 | 0.00 | 0.00 | 0.00 | 68 | 1018.7 |
| 20260502192545 | 83 | 14 | 10.0 | 24.0 | 0.00 | 0.00 | 0.00 | 69 | 1018.7 |
| 20260502192043 | 84 | 108 | 13.0 | 22.0 | 0.00 | 0.00 | 0.00 | 69 | 1018.8 |
| 20260502191540 | 84 | 119 | 12.0 | 21.0 | 0.00 | 0.00 | 0.00 | 68 | 1018.9 |
| 20260502191038 | 84 | 242 | 11.0 | 22.0 | 0.00 | 0.00 | 0.00 | 69 | 1019.1 |
| 20260502190535 | 85 | 86 | 16.0 | 26.0 | 0.00 | 0.00 | 0.00 | 66 | 1018.9 |
| 20260502190032 | 85 | 143 | 9.0 | 24.0 | 0.00 | 0.00 | 0.00 | 68 | 1018.9 |
| 20260502185526 | 85 | 104 | 14.0 | 19.0 | 0.00 | 0.00 | 0.00 | 68 | 1019.1 |
| 20260502185024 | 85 | 94 | 13.0 | 19.0 | 0.00 | 0.00 | 0.00 | 66 | 1019.0 |
| 20260502184519 | 84 | 89 | 14.0 | 18.0 | 0.00 | 0.00 | 0.00 | 70 | 1019.1 |
| 20260502184016 | 85 | 133 | 17.0 | 19.0 | 0.00 | 0.00 | 0.00 | 66 | 1019.2 |
| 20260502183512 | 84 | 98 | 18.0 | 22.0 | 0.00 | 0.00 | 0.00 | 68 | 1019.3 |
| 20260502183008 | 84 | 103 | 18.0 | 24.0 | 0.00 | 0.00 | 0.00 | 68 | 1019.2 |
| 20260502182503 | 84 | 119 | 12.0 | 24.0 | 0.00 | 0.00 | 0.00 | 71 | 1019.5 |
| 20260502181959 | 85 | 251 | 9.0 | 21.0 | 0.00 | 0.00 | 0.00 | 68 | 1019.4 |
| 20260502181458 | 86 | 83 | 16.0 | 22.0 | 0.00 | 0.00 | 0.00 | 67 | 1019.6 |
| 20260502180956 | 86 | 81 | 13.0 | 21.0 | 0.00 | 0.00 | 0.00 | 66 | 1019.7 |
| 20260502180453 | 86 | 113 | 12.0 | 21.0 | 0.00 | 0.00 | 0.00 | 65 | 1019.8 |
| 20260502170412 | 85 | 159 | 15.0 | 19.0 | 0.00 | 0.00 | 0.00 | 71 | 1020.3 |
| 20260502163855 | 86 | 106 | 19.0 | 23.0 | 0.00 | 0.00 | 0.00 | 68 | 1020.5 |
| 20260502163351 | 86 | 133 | 17.0 | 21.0 | 0.00 | 0.00 | 0.00 | 67 | 1020.6 |
| 20260502162849 | 86 | 54 | 15.0 | 25.0 | 0.00 | 0.00 | 0.00 | 67 | 1020.4 |
| 20260502162345 | 86 | 79 | 8.0 | 21.0 | 0.00 | 0.00 | 0.00 | 69 | 1020.9 |
| 20260502161843 | 86 | 99 | 12.0 | 21.0 | 0.00 | 0.00 | 0.00 | 69 | 1020.9 |
| 20260502161339 | 85 | 176 | 11.0 | 17.0 | 0.00 | 0.00 | 0.00 | 71 | 1021.0 |
| 20260502160837 | 86 | 87 | 12.0 | 18.0 | 0.00 | 0.00 | 0.00 | 69 | 1021.1 |
| 20260502160335 | 86 | 181 | 12.0 | 21.0 | 0.00 | 0.00 | 0.00 | 69 | 1021.0 |
| 20260502152310 | 86 | 120 | 11.0 | 15.0 | 0.00 | 0.00 | 0.00 | 68 | 1021.3 |
| 20260502151808 | 86 | 63 | 13.0 | 18.0 | 0.00 | 0.00 | 0.00 | 66 | 1021.2 |
| 20260502151304 | 86 | 243 | 8.0 | 18.0 | 0.00 | 0.00 | 0.00 | 68 | 1021.1 |
| 20260502150802 | 87 | 152 | 15.0 | 21.0 | 0.00 | 0.00 | 0.00 | 67 | 1021.0 |
| 20260502150259 | 87 | 127 | 17.0 | 22.0 | 0.00 | 0.00 | 0.00 | 67 | 1021.4 |
| 20260502130647 | 85 | 67 | 10.0 | 18.0 | 0.00 | 0.00 | 0.00 | 64 | 1021.1 |
| 20260502130144 | 85 | 206 | 10.0 | 14.0 | 0.00 | 0.00 | 0.00 | 65 | 1020.8 |
| 20260502123630 | 84 | 185 | 4.0 | 11.0 | 0.00 | 0.00 | 0.00 | 66 | 1020.5 |
| 20260502123126 | 83 | 49 | 7.0 | 14.0 | 0.00 | 0.00 | 0.00 | 67 | 1020.6 |
| 20260502122623 | 83 | 69 | 5.0 | 10.0 | 0.00 | 0.00 | 0.00 | 66 | 1020.4 |
| 20260502122120 | 83 | 123 | 11.0 | 16.0 | 0.00 | 0.00 | 0.00 | 67 | 1020.5 |
| 20260502121618 | 83 | 96 | 7.0 | 11.0 | 0.00 | 0.00 | 0.00 | 67 | 1020.5 |
| 20260502121115 | 82 | 86 | 5.0 | 11.0 | 0.00 | 0.00 | 0.00 | 68 | 1020.3 |
| 20260502120611 | 82 | 56 | 7.0 | 9.0 | 0.00 | 0.00 | 0.00 | 69 | 1020.2 |
| 20260502120108 | 81 | 80 | 7.0 | 11.0 | 0.00 | 0.00 | 0.00 | 69 | 1020.2 |
| 20260502115607 | 81 | 107 | 12.0 | 13.0 | 0.00 | 0.00 | 0.00 | 69 | 1020.2 |
| 20260502115108 | 81 | 74 | 6.0 | 14.0 | 0.00 | 0.00 | 0.00 | 69 | 1020.0 |
| 20260502114604 | 80 | 82 | 8.0 | 14.0 | 0.00 | 0.00 | 0.00 | 69 | 1020.1 |
| 20260502114101 | 80 | 91 | 12.0 | 17.0 | 0.00 | 0.00 | 0.00 | 70 | 1019.8 |
| 20260502113559 | 80 | 82 | 6.0 | 14.0 | 0.00 | 0.00 | 0.00 | 70 | 1019.9 |
| 20260502113057 | 80 | 98 | 8.0 | 16.0 | 0.00 | 0.00 | 0.00 | 69 | 1019.7 |
| 20260502112555 | 79 | 76 | 7.0 | 13.0 | 0.00 | 0.00 | 0.00 | 70 | 1019.9 |
| 20260502112052 | 79 | 92 | 11.0 | 17.0 | 0.00 | 0.00 | 0.00 | 70 | 1019.8 |
| 20260502111549 | 79 | 83 | 7.0 | 14.0 | 0.00 | 0.00 | 0.00 | 70 | 1019.7 |
| 20260502111047 | 79 | 60 | 11.0 | 16.0 | 0.00 | 0.00 | 0.00 | 70 | 1019.6 |
| 20260502110544 | 79 | 115 | 14.0 | 17.0 | 0.00 | 0.00 | 0.00 | 70 | 1019.5 |
| 20260502110042 | 78 | 90 | 6.0 | 13.0 | 0.00 | 0.00 | 0.00 | 71 | 1019.5 |
| 20260502105539 | 78 | 95 | 15.0 | 17.0 | 0.00 | 0.00 | 0.00 | 71 | 1019.5 |
| 20260502105036 | 78 | 80 | 7.0 | 17.0 | 0.00 | 0.00 | 0.00 | 72 | 1019.6 |
| 20260502104533 | 78 | 63 | 10.0 | 14.0 | 0.00 | 0.00 | 0.00 | 73 | 1019.3 |
| 20260502104031 | 77 | 68 | 8.0 | 17.0 | 0.00 | 0.00 | 0.00 | 74 | 1019.2 |
| 20260502103528 | 77 | 81 | 15.0 | 17.0 | 0.00 | 0.00 | 0.00 | 74 | 1019.1 |
| 20260502103026 | 77 | 82 | 9.0 | 17.0 | 0.00 | 0.00 | 0.00 | 75 | 1019.3 |
| 20260502102522 | 76 | 78 | 6.0 | 14.0 | 0.00 | 0.00 | 0.00 | 76 | 1018.9 |
| 20260502102019 | 76 | 95 | 9.0 | 16.0 | 0.00 | 0.00 | 0.00 | 77 | 1018.9 |
| 20260502101517 | 76 | 60 | 8.0 | 15.0 | 0.00 | 0.00 | 0.00 | 78 | 1019.0 |
| 20260502101015 | 76 | 114 | 10.0 | 15.0 | 0.00 | 0.00 | 0.00 | 79 | 1019.1 |
| 20260502100514 | 75 | 91 | 12.0 | 18.0 | 0.00 | 0.00 | 0.00 | 79 | 1018.9 |
| 20260502091448 | 75 | 72 | 7.0 | 14.0 | 0.00 | 0.00 | 0.00 | 83 | 1018.6 |
| 20260502090945 | 75 | 108 | 9.0 | 17.0 | 0.00 | 0.00 | 0.00 | 83 | 1018.5 |
| 20260502090442 | 75 | 273 | 4.0 | 10.0 | 0.00 | 0.00 | 0.00 | 83 | 1018.5 |
| 20260502071337 | 76 | 80 | 9.0 | 14.0 | 0.00 | 0.00 | 0.00 | 80 | 1017.8 |
| 20260502070835 | 76 | 82 | 8.0 | 14.0 | 0.00 | 0.00 | 0.00 | 79 | 1018.1 |
| 20260502070332 | 76 | 86 | 5.0 | 13.0 | 0.00 | 0.00 | 0.00 | 79 | 1017.9 |
| 20260502065831 | 76 | 299 | 3.0 | 11.0 | 0.00 | 0.00 | 0.00 | 79 | 1018.1 |
| 20260502065329 | 76 | 74 | 6.0 | 10.0 | 0.00 | 0.00 | 0.00 | 79 | 1018.2 |
| 20260502064826 | 76 | 98 | 7.0 | 16.0 | 0.00 | 0.00 | 0.00 | 79 | 1018.1 |
| 20260502064324 | 76 | 82 | 9.0 | 11.0 | 0.00 | 0.00 | 0.00 | 79 | 1018.3 |
| 20260502063821 | 76 | 85 | 5.0 | 10.0 | 0.00 | 0.00 | 0.00 | 79 | 1018.1 |
| 20260502063319 | 76 | 73 | 8.0 | 15.0 | 0.00 | 0.00 | 0.00 | 79 | 1018.1 |
| 20260502062816 | 76 | 64 | 4.0 | 14.0 | 0.00 | 0.00 | 0.00 | 79 | 1018.3 |
| 20260502062313 | 76 | 93 | 11.0 | 13.0 | 0.00 | 0.00 | 0.00 | 79 | 1018.3 |
| 20260502061812 | 76 | 78 | 10.0 | 13.0 | 0.00 | 0.00 | 0.00 | 79 | 1018.5 |
| 20260502061310 | 76 | 86 | 12.0 | 14.0 | 0.00 | 0.00 | 0.00 | 80 | 1018.3 |
| 20260502060805 | 76 | 92 | 6.0 | 11.0 | 0.00 | 0.00 | 0.00 | 79 | 1018.3 |
| 20260502060300 | 76 | 74 | 5.0 | 10.0 | 0.00 | 0.00 | 0.00 | 79 | 1018.2 |
| 20260502055759 | 76 | 112 | 5.0 | 9.0 | 0.00 | 0.00 | 0.00 | 79 | 1018.4 |
| 20260502055256 | 76 | 79 | 9.0 | 11.0 | 0.00 | 0.00 | 0.00 | 79 | 1018.4 |
| 20260502054755 | 76 | 83 | 11.0 | 14.0 | 0.00 | 0.00 | 0.00 | 79 | 1018.4 |
| 20260502054252 | 76 | 100 | 10.0 | 14.0 | 0.00 | 0.00 | 0.00 | 78 | 1018.4 |
| 20260502053750 | 76 | 83 | 9.0 | 11.0 | 0.00 | 0.00 | 0.00 | 78 | 1018.6 |
| 20260502053247 | 77 | 106 | 11.0 | 14.0 | 0.00 | 0.00 | 0.00 | 77 | 1018.6 |
| 20260502052745 | 77 | 103 | 8.0 | 14.0 | 0.00 | 0.00 | 0.00 | 77 | 1018.4 |
| 20260502052243 | 76 | 96 | 8.0 | 11.0 | 0.00 | 0.00 | 0.00 | 77 | 1018.7 |
| 20260502051740 | 77 | 59 | 3.0 | 10.0 | 0.00 | 0.00 | 0.00 | 77 | 1018.9 |
| 20260502051238 | 77 | 76 | 3.0 | 9.0 | 0.00 | 0.00 | 0.00 | 78 | 1018.9 |
| 20260502050734 | 77 | 93 | 5.0 | 15.0 | 0.00 | 0.00 | 0.00 | 78 | 1018.7 |
| 20260502050230 | 76 | 87 | 8.0 | 11.0 | 0.00 | 0.00 | 0.00 | 79 | 1018.9 |
| 20260502045728 | 76 | 112 | 8.0 | 9.0 | 0.00 | 0.00 | 0.00 | 79 | 1019.0 |
| 20260502045225 | 76 | 74 | 6.0 | 11.0 | 0.00 | 0.00 | 0.00 | 80 | 1019.1 |
| 20260502044722 | 76 | 104 | 6.0 | 8.0 | 0.00 | 0.00 | 0.00 | 80 | 1019.3 |
| 20260502044218 | 77 | 36 | 5.0 | 9.0 | 0.00 | 0.00 | 0.00 | 80 | 1019.3 |
| 20260502043715 | 77 | 90 | 8.0 | 11.0 | 0.00 | 0.00 | 0.00 | 81 | 1019.2 |
| 20260502043213 | 76 | 93 | 11.0 | 13.0 | 0.00 | 0.00 | 0.00 | 81 | 1019.2 |
| 20260502042712 | 76 | 30 | 6.0 | 10.0 | 0.00 | 0.00 | 0.00 | 82 | 1019.3 |
| 20260502042210 | 76 | 94 | 5.0 | 10.0 | 0.00 | 0.00 | 0.00 | 82 | 1019.3 |
| 20260502041707 | 77 | 87 | 6.0 | 11.0 | 0.00 | 0.00 | 0.00 | 82 | 1019.5 |
| 20260502041204 | 76 | 74 | 8.0 | 10.0 | 0.00 | 0.00 | 0.00 | 83 | 1019.6 |
| 20260502040701 | 77 | 66 | 6.0 | 10.0 | 0.00 | 0.00 | 0.00 | 83 | 1019.5 |
| 20260502040158 | 77 | 70 | 5.0 | 8.0 | 0.00 | 0.00 | 0.00 | 83 | 1019.5 |
| 20260502035654 | 77 | 76 | 6.0 | 15.0 | 0.00 | 0.00 | 0.00 | 84 | 1019.6 |
| 20260502035151 | 77 | 14 | 2.0 | 9.0 | 0.00 | 0.00 | 0.00 | 84 | 1019.8 |
| 20260502034649 | 77 | 66 | 3.0 | 6.0 | 0.00 | 0.00 | 0.00 | 84 | 1019.7 |
| 20260502034147 | 77 | 72 | 9.0 | 11.0 | 0.00 | 0.00 | 0.00 | 85 | 1019.7 |
| 20260502033644 | 77 | 107 | 6.0 | 10.0 | 0.00 | 0.00 | 0.00 | 84 | 1019.9 |
| 20260502033142 | 77 | 151 | 2.0 | 7.0 | 0.00 | 0.00 | 0.00 | 84 | 1019.9 |
| 20260502032638 | 77 | 66 | 8.0 | 11.0 | 0.00 | 0.00 | 0.00 | 84 | 1020.0 |
| 20260502032134 | 77 | 131 | 4.0 | 10.0 | 0.00 | 0.00 | 0.00 | 84 | 1020.0 |
| 20260502031632 | 78 | 10 | 6.0 | 11.0 | 0.00 | 0.00 | 0.00 | 85 | 1020.0 |
| 20260502031130 | 77 | 68 | 7.0 | 11.0 | 0.00 | 0.00 | 0.00 | 85 | 1019.9 |
| 20260502030629 | 77 | 18 | 4.0 | 8.0 | 0.00 | 0.00 | 0.00 | 85 | 1019.7 |
| 20260502030126 | 78 | 56 | 5.0 | 8.0 | 0.00 | 0.00 | 0.00 | 85 | 1019.8 |
| 20260502025623 | 78 | 38 | 2.0 | 7.0 | 0.00 | 0.00 | 0.00 | 84 | 1019.7 |
| 20260502025121 | 78 | 81 | 5.0 | 10.0 | 0.00 | 0.00 | 0.00 | 84 | 1019.7 |
| 20260502024619 | 78 | 114 | 6.0 | 9.0 | 0.00 | 0.00 | 0.00 | 84 | 1019.8 |
| 20260502024117 | 78 | 66 | 7.0 | 9.0 | 0.00 | 0.00 | 0.00 | 84 | 1019.5 |
| 20260502023615 | 78 | 86 | 6.0 | 8.0 | 0.00 | 0.00 | 0.00 | 84 | 1019.6 |
| 20260502023111 | 78 | 110 | 4.0 | 13.0 | 0.00 | 0.00 | 0.00 | 84 | 1019.6 |
| 20260502022608 | 78 | 125 | 7.0 | 17.0 | 0.00 | 0.00 | 0.00 | 84 | 1019.5 |
| 20260502022106 | 78 | 137 | 3.0 | 10.0 | 0.00 | 0.00 | 0.00 | 84 | 1019.4 |
| 20260502021603 | 78 | 154 | 9.0 | 11.0 | 0.00 | 0.00 | 0.00 | 84 | 1019.3 |
| 20260502021059 | 78 | 106 | 7.0 | 11.0 | 0.00 | 0.00 | 0.00 | 83 | 1019.2 |
| 20260502020557 | 78 | 90 | 11.0 | 15.0 | 0.00 | 0.00 | 0.00 | 84 | 1019.1 |
| 20260502020054 | 78 | 259 | 2.0 | 8.0 | 0.00 | 0.00 | 0.00 | 83 | 1019.0 |
| 20260502015552 | 78 | 197 | 4.0 | 18.0 | 0.00 | 0.00 | 0.00 | 84 | 1018.9 |
| 20260502015048 | 78 | 53 | 7.0 | 14.0 | 0.00 | 0.00 | 0.00 | 84 | 1019.1 |
| 20260502014545 | 78 | 95 | 6.0 | 13.0 | 0.00 | 0.00 | 0.00 | 85 | 1018.8 |
| 20260502014042 | 78 | 75 | 7.0 | 8.0 | 0.00 | 0.00 | 0.00 | 85 | 1019.1 |
| 20260502013537 | 78 | 69 | 8.0 | 9.0 | 0.00 | 0.00 | 0.00 | 85 | 1018.8 |